National Weather Service United States Department of Commerce
Data are updated at 11 and 26 past the hour. Coastal data is often not avaialable until 26 past the hour.
Check the Preious Version of the data HERE if data are missing.  

NYCBOYDAT LOC
TTAA00 KOKX 062128

Coastal Waters Roundup...For Informational Purposes Only
National Weather Service New York NY
500 PM EDT MON APR 06 2020

...Ocean Waters...
  
STATION/POSITION TIME  TEMP    WIND        PRES    WAVE   WND WV SWELL
                       AIR SEA DIR/SP/G            HT/PER HT/PER HT/PER/DIR
                 (UTC) (F)     (DEG/KT/KT) (MB)    (FT/S) (FT/S) (FT/S/D)
NY Harb Entrance 2110   50     180/ 10/ 12 1014.4
20 S Fire Is NY  2050   50 48              1014.6    4/12          3/110/12
23 SSW Montauk P NOT AVBL
25 SE Block IS   2100      45                N/A     4/12   3/ 9   2/120/12
15 E Barnegat NJ 2100      48                N/A     4/12   3/ 8   2/ 90/12
Texas Tower #4   2110      45              1016.1

...Long Island South Shore (WeatherFlow - Wind is MPH)...
  
STATION/POSITION TIME  TEMP    WIND        PRES    WAVE   WND WV SWELL
                       AIR SEA DIR/SP/G            HT/PER HT/PER HT/PER/DIR
                 (UTC) (F)     (DEG/KT/KT) (MB)    (FT/S) (FT/S) (FT/S/D)
Great South Bay  NOT AVBL

CITY           SKY/WX    TMP DP  RH WIND       PRES   REMARKS
Breezy Point     N/A     54 N/A N/A S10         N/A                   
Jones Beach CG   N/A     55 N/A N/A S7          N/A                   
Amityville       N/A     54 N/A N/A SW13        N/A                   
Boat Channel     N/A     52 N/A N/A S13         N/A                   
Fire Island CG   N/A     50 N/A N/A S10         N/A                   
Pt O Woods     NOT AVBL                                               
Blue Pt          N/A     52 N/A N/A SW12G18     N/A                   
East Moriches    N/A     50 N/A N/A SW12        N/A                   
Shinnecock Inl   N/A     48 N/A N/A SW16        N/A                   
Mecox Bay        N/A     48 N/A N/A SW17        N/A                   
Napeaque         N/A     52 N/A N/A SW13G18     N/A                   

...Long Island Sound...
  
STATION/POSITION TIME  TEMP    WIND        PRES    WAVE   WND WV SWELL
                       AIR SEA DIR/SP/G            HT/PER HT/PER HT/PER/DIR
                 (UTC) (F)     (DEG/KT/KT) (MB)    (FT/S) (FT/S) (FT/S/D)
Kings Point      2054   63 57   70/  2/  4 1014.2
Execution Rocks  2115   56 32  100/  4/  6   N/A
Western LI Sound 2045   58     200/  6/  8   N/A     0
Bridgeport NOS   2048   63 49  320/  6/ 12 1012.7
New Haven NOS    2048   62 51  330/ 11/ 17 1012.4
Central LI Sound NOT AVBL
Ledge Light      2110   51     260/ 17/ 19 1010.7

...Long Island Sound Coastal  (WeatherFlow - Wind is MPH)...
  
CITY           SKY/WX    TMP DP  RH WIND       PRES   REMARKS
Larchmont        N/A     59 N/A N/A SE8         N/A                   
Norwalk          N/A     61 N/A N/A W13         N/A                   
Bayville         N/A     61 N/A N/A SW7         N/A                   
Eatons Neck      N/A     59 N/A N/A W7          N/A                   
Mt Sinai         N/A    N/A N/A N/A W3          N/A                   
New Haven Harb   N/A     55 N/A N/A SW6G13      N/A                   
Hammonasset    NOT AVBL                                               
USCG Academy     N/A     57 N/A N/A SW12G18     N/A                   
Gull Island    NOT AVBL                                               
Fishers Island   N/A     52 N/A N/A W15         N/A                   

...Block Island Sound (WeatherFlow - Wind is MPH)...
  
CITY           SKY/WX    TMP DP  RH WIND       PRES   REMARKS
Block Island     N/A     48 N/A N/A S17         N/A                   
Ninigret Pond    N/A     46 N/A N/A S13         N/A                   
Point Judith     N/A     48 N/A N/A S17         N/A                   

...NY Harbor...
  
STATION/POSITION TIME  TEMP    WIND        PRES    WAVE   WND WV SWELL
                       AIR SEA DIR/SP/G            HT/PER HT/PER HT/PER/DIR
                 (UTC) (F)     (DEG/KT/KT) (MB)    (FT/S) (FT/S) (FT/S/D)
Bergen Point     2048   64 51              1013.8
Robbins Reef     2048          310/ 15/ 21 1013.6
Sandy Hook       2048   58 53  170/  9/ 10 1014.5

...NY Harbor (WeatherFlow - Wind is MPH)...
  
CITY           SKY/WX    TMP DP  RH WIND       PRES   REMARKS
Bayonne          N/A     64 N/A N/A W6          N/A                   
Perth Amboy      N/A     63 N/A N/A W9          N/A                   
Sandy Hook     NOT AVBL                                               

...New England Waters...
  
STATION/POSITION TIME  TEMP    WIND        PRES    WAVE   WND WV SWELL
                       AIR SEA DIR/SP/G            HT/PER HT/PER HT/PER/DIR
                 (UTC) (F)     (DEG/KT/KT) (MB)    (FT/S) (FT/S) (FT/S/D)
Buzzards Bay MA  2100          180/ 14/ 14 1014.0
Nantucket Shoals 2110          360/  6/  8 1014.9
Nantucket Sound  2040                        N/A     1
Boston Harbor    2050   46 44  160/ 12/ 14 1011.2    3/11          3/ 50/11
Mass Bay         2004   44 42  180/  8/ 10 1010.2    4/11
Jeffrey's Ledge  2108      43                N/A     4/10   3/10   3/ 90/12
Isle of Shoals   2100   54     310/ 15/ 17 1010.7
Mnt Desert Rock  2100          220/ 15/ 15 1009.0
Matinicus Rock M NOT AVBL
Gulf of Maine    NOT AVBL
12 SE Portland M 2050   45 44  190/ 12/ 14 1010.6    4/10   2/ 5   3/100/10

...Southern NJ Coast...
  
STATION/POSITION TIME  TEMP    WIND        PRES    WAVE   WND WV SWELL
                       AIR SEA DIR/SP/G            HT/PER HT/PER HT/PER/DIR
                 (UTC) (F)     (DEG/KT/KT) (MB)    (FT/S) (FT/S) (FT/S/D)
Delaware Bay     2050   49 52   80/ 10/ 12 1012.3    4/11   2/ 3   3/ 90/11

...Mid-Atlantic and Southeast Coast... 
  
STATION/POSITION TIME  TEMP    WIND        PRES    WAVE   WND WV SWELL
                       AIR SEA DIR/SP/G            HT/PER HT/PER HT/PER/DIR
                 (UTC) (F)     (DEG/KT/KT) (MB)    (FT/S) (FT/S) (FT/S/D)
Thomas Point MD  2100   62 53   40/  6/  7 1016.5
Diamond Shoals N 2110   71 74  230/ 19/ 23   N/A
Cape Lookout NC  2100   67     210/ 13/ 16 1015.0
Frying Pan Shls  2110   72 72  220/ 19/ 21 1016.5
Duck Pier NC     2048   58      30/ 12/ 14 1015.4
Folly Island SC  2100   70     200/ 10/ 12 1018.9
St Augustine FL  2100   70 72   30/  7/  7 1019.1
64 E VA Beach VA NOT AVBL
Edisto SC        2110   71 73              1018.2
Grays Reef GA    2050   71 74  160/  6/  6 1018.7    3/13   2/ 4   3/ 70/13
20 E Cape Canave 2110   74 75   90/ 14/ 17 1018.4
South Hatteras N 2110   70     220/  4/  8 1019.2
Georges Bank     2110      41              1012.9
$$

 

Updated:  1/4/16